Search flights

Kingsford Smith Intl Airport, Sydney (YSSY)

Airport Weather & NOTAM's

METAR for:YSSY (Sydney Intl, NS, AU)
Text:YSSY 140330Z 26013KT 9999 FEW048 SCT050 17/04 Q1008 RF00.0/000.0
Conditions at:0330 UTC 14 Jul 2024
Temperature: 17.0°C ( 63°F)
Dewpoint: 4.0°C ( 39°F) [RH = 42%]
Pressure (altimeter):29.76 inches Hg (1008.0 mb)
Winds:from the W (260 degrees) at 15 MPH (13 knots; 6.7 m/s)
Visibility:6 or more sm (10+ km)
Ceiling:at least 12,000 feet AGL
Clouds:few clouds at 4800 feet AGL, scattered clouds at 5000 feet AGL
TAF for:YSSY (Sydney Intl, NS, AU) issued at 0219 UTC 14 Jul 2024
Text:TAF YSSY 140219Z 1403/1506 26012KT 9999 FEW050
Forecast period:0300 to 0700 UTC 14 July 2024
Forecast type:FROM: standard forecast or significant change
Winds:from the W (260 degrees) at 14 MPH (12 knots; 6.2 m/s)
Visibility:6 or more sm (10+ km)
Ceiling:at least 12,000 feet AGL
Clouds:few clouds at 5000 feet AGL
Text:BECMG 1407/1409 29008KT CAVOK
Forecast period:0700 to 2300 UTC 14 July 2024
Forecast type:BECOMING: Conditions expected to become as follows by 0900 UTC 14 July 2024
Winds:from the WNW (290 degrees) at 9 MPH (8 knots; 4.1 m/s)
Visibility:6 or more sm (10+ km)
Clouds:missing
Weather:NSW (no significant weather)
Text:BECMG 1423/1501 26020G30KT CAVOK
Forecast period:2300 UTC 14 July 2024 to 0400 UTC 15 July 2024
Forecast type:BECOMING: Conditions expected to become as follows by 0100 UTC 15 July 2024
Winds:from the W (260 degrees) at 23 MPH (20 knots; 10.3 m/s) gusting to 34 MPH (30 knots; 15.4 m/s)
Visibility:6 or more sm (10+ km)
Clouds:missing
Weather:NSW (no significant weather)
Text:FM150400 27015G25KT CAVOK
Forecast period:0400 to 0600 UTC 15 July 2024
Forecast type:FROM: standard forecast or significant change
Winds:from the W (270 degrees) at 17 MPH (15 knots; 7.7 m/s) gusting to 29 MPH (25 knots; 12.9 m/s)
Visibility:6 or more sm (10+ km)
Clouds:missing
Weather:NSW (no significant weather)

Live Departures & Arrivals

There are currently no arrivals or departures for this airport.

Departures History (last 12 months)

Flight No. Dest. Aircraft Date
FX 579 PHNL FEDEX-MD11... 2024-07-10 00:00:00
FX 587 KMEM FEDEX-B77F 2024-06-16 00:00:00
FX 587 KMEM FEDEX-B77F 2024-06-07 00:00:00
MTN 8467 YMML FEDEX-C208 2024-06-05 00:00:00
FX 588 WSSS FEDEX-B77F 2024-06-05 00:00:00
CONNECT 75 RPLL FEDEX-B77F 2024-05-21 00:00:00
CONNECT75 RPLL FEDEX-B77F 2024-05-20 00:00:00
CONNECT 56 NZAA FEDEX-B77F 2024-05-18 00:00:00
FX 579 PHNL FEDEX-B77F 2024-05-16 00:00:00
FX 587 KMEM FEDEX-B77F 2024-05-08 00:00:00
FX579 PHNL FEDEX-B77F 2024-05-06 00:00:00
FX 587 KMEM FEDEX-B77F 2024-05-04 00:00:00
FX581 ZGGG FEDEX-B77F 2024-05-01 00:00:00
FX582 KLAX FEDEX-B77F 2024-04-24 00:00:00
FX582 KLAX FEDEX-B77F 2024-04-19 00:00:00
FX ATC YSSY IFATC 2024-04-14 00:00:00
FX 587 KMEM FEDEX-B77F 2024-04-14 00:00:00
FX 582 KLAX FEDEX-B77F 2024-04-12 00:00:00
FX 577 VHHH FEDEX-B77F 2024-03-29 00:00:00
FX583 FACT FEDEX-B77F 2024-03-29 00:00:00
FX 579 PHNL FEDEX-B77F 2024-03-28 00:00:00
FX582 KLAX FEDEX-MD11... 2024-03-22 00:00:00
FX 587 KMEM FEDEX-B77F 2024-03-18 00:00:00
FX 701 ZGSZ FEDEX-B77F 2024-03-11 00:00:00
FX 588 WSSS FEDEX-MD11... 2024-03-10 00:00:00
FX 583 FACT FEDEX-B77F 2024-03-10 00:00:00
FX 587 KMEM FEDEX-B77F 2024-03-08 00:00:00
CONNECT 66 NZAA FEDEX-MD11... 2024-03-02 00:00:00
FX 583 FACT FEDEX-B77F 2024-03-01 00:00:00
FX 582 KLAX FEDEX-B77F 2024-02-29 00:00:00
CONNECT 66 NZAA FEDEX-MD11... 2024-02-28 00:00:00
FX CTR KOAK FEDEX-B77F 2024-02-27 00:00:00
FXCTR KOAK FEDEX-B77F 2024-02-24 00:00:00
FX582 PHNL FEDEX-MD11... 2024-02-15 00:00:00
FX587 FACT FEDEX-B77F 2024-01-26 00:00:00
FX586 OMDB FEDEX-B77F 2024-01-26 00:00:00
FX CTR KOAK FEDEX-B77F 2024-01-26 00:00:00
FX 582 PHNL FEDEX-B77F 2024-01-23 00:00:00
FX 585 KLAX FEDEX-B77F 2024-01-16 00:00:00
FX 585 KLAX FEDEX-B77F 2024-01-15 00:00:00
MTN 8467 YMML FEDEX-C208 2024-01-14 00:00:00
FX 584 ZGGG FEDEX-B77F 2024-01-14 00:00:00
FX 591 KMEM FEDEX-B77F 2024-01-13 00:00:00
FX 585 KLAX B77F 2024-01-05 00:00:00
FX587 FACT B77F 2024-01-03 00:00:00
FX 592 WSSS B77F 2023-12-14 00:00:00
FX586 OMDB B77F 2023-12-13 00:00:00
FX585 KLAX B77F 2023-12-10 00:00:00
FX CTR KLGA B77F 2023-12-05 00:00:00
FX 585 KLAX B77F 2023-12-05 00:00:00
FX CTR KBOS B77F 2023-11-30 00:00:00
FX 592 WSSS B77F 2023-11-22 00:00:00
FX 592 WSSS MD11F 2023-11-22 00:00:00
FX 585 KLAX B77F 2023-11-17 00:00:00
FX CTR KJFK B77F 2023-11-12 00:00:00
FX CTR EGLL B77F 2023-11-10 00:00:00
FX 582 PHNL B77F 2023-11-10 00:00:00
FX885 YMHB B738 2023-11-08 00:00:00
FX CTR LEBL B77F 2023-11-08 00:00:00
FX CTR YMML B77F 2023-11-06 00:00:00
FX CTR EGCC TNT B77F 2023-11-03 00:00:00
FX CTR EGCC B77F 2023-11-03 00:00:00
FX 592 WSSS B77F 2023-11-02 00:00:00
FX 591 KMEM B77F 2023-10-25 00:00:00
FX586 OMDB B77F 2023-10-23 00:00:00
FX585 KLAX B77F 2023-10-19 00:00:00
FX 591 KMEM B77F 2023-10-15 00:00:00
FX585 KLAX B77F 2023-10-14 00:00:00
FX 582 PHNL B77F 2023-10-13 00:00:00
FX 587 FACT B77F 2023-10-08 00:00:00
FX CTR KJFK B77F 2023-10-06 00:00:00
FX585 KLAX B77F 2023-10-03 00:00:00
FX 585 KLAX B77F 2023-09-29 00:00:00
FX 591 KMEM B77F 2023-09-26 00:00:00
FX591 KMEM B77F 2023-09-24 00:00:00
FX 737 ZGSZ B77F 2023-09-22 00:00:00
FX 587 FACT B77F 2023-09-19 00:00:00
FX578 NZAA B77F 2023-09-08 00:00:00
FX592 WSSS B77F 2023-09-07 00:00:00
FX582 PHNL B77F 2023-10-02 00:00:00
FX CTR KJFK B77F 2023-09-02 00:00:00
FX 578 NZAA B77F 2023-08-31 00:00:00
FX 585 KLAX B77F 2023-08-29 00:00:00
FX585 KLAX B77F 2023-08-28 00:00:00
FX ROTW KLAX B77F 2023-08-28 00:00:00
FX 582 PHNL B77F 2023-08-25 00:00:00
FX CTR LFPG B77F 2023-08-25 00:00:00
FX585 KLAX B77F 2023-08-24 00:00:00
FX CTR KJFK B77F 2023-08-20 00:00:00
FX574 RPLL B77F 2023-08-16 00:00:00
FX 580 VHHH MD11F 2023-08-15 00:00:00
FX WORLD 43 NZAA MD11F 2023-08-10 00:00:00
FX WORLD 43 NZAA MD11F 2023-08-09 00:00:00
FX 585 KLAX B77F 2023-08-09 00:00:00
FX580 VHHH B77F 2023-08-08 00:00:00
FX ROTW NZAA B77F 2023-08-07 00:00:00
FX ATC YSSY IFATC 2023-08-07 00:00:00
FX WORLD 43 NZAA MD11F 2023-08-03 00:00:00
FXWORLD43 NZAA MD11F 2023-07-31 00:00:00
FX582 PHNL B77F 2023-07-30 00:00:00
FX 585 KLAX B77F 2023-07-30 00:00:00
FX586 OMDB B77F 2023-07-21 00:00:00
FX 574 RPLL B77F 2023-07-21 00:00:00
FX WORLD 43 NZAA MD11F 2023-07-17 00:00:00
FX CTR RKSI B77F 2023-07-17 00:00:00
FX 585 KLAX B77F 2023-07-15 00:00:00

Arrivals History (last 12 months)

Flight No. Origin Aircraft Date
FX 670 KLAX FEDEX-B77F 2024-07-09 00:00:00
CONNECT73 RJBB FEDEX-MD11... 2024-07-08 00:00:00
FX 584 FACT FEDEX-B77F 2024-07-02 00:00:00
EK 004 WSSS EMIRATES-B... 2024-07-02 00:00:00
FX 584 FACT FEDEX-B77F 2024-06-19 00:00:00
FX 414 WSSS FEDEX-B77F 2024-06-16 00:00:00
FX584 FACT FEDEX-MD11... 2024-06-09 00:00:00
FX 670 KLAX FEDEX-B77F 2024-06-06 00:00:00
FX584 FACT FEDEX-B77F 2024-05-20 00:00:00
FXCTR LFPG FEDEX-B77F 2024-05-06 00:00:00
CONNECT 1135 FACT FEDEX-B77F 2024-05-05 00:00:00
CONNECT 1135 FACT FEDEX-B77F 2024-05-05 00:00:00
CONNECT 1135 FACT FEDEX-B77F 2024-05-05 00:00:00
FX607 ZGGG FEDEX-B77F 2024-05-03 00:00:00
FX198 KMEM FEDEX-B77F 2024-04-30 00:00:00
CONNECT 1135 FACT FEDEX-B77F 2024-04-29 00:00:00
FX 1043 YMML FEDEX-MD11... 2024-04-21 00:00:00
FX ATC YSSY IFATC 2024-04-14 00:00:00
FX 414 WSSS FEDEX-MD11... 2024-04-14 00:00:00
FXCTR LFRS FEDEX-B77F 2024-04-12 00:00:00
CONNECT1652 NZAA FEDEX-DC10... 2024-04-12 00:00:00
FX 670 KLAX FEDEX-B77F 2024-04-10 00:00:00
FX 584 FACT FEDEX-B77F 2024-04-04 00:00:00
FX 670 KLAX FEDEX-MD11... 2024-03-28 00:00:00
FX 576 NZAA FEDEX-B77F 2024-03-28 00:00:00
FX 584 FACT FEDEX-B77F 2024-03-17 00:00:00
FX CTR YMML FEDEX-B77F 2024-03-11 00:00:00
FX 670 KLAX FEDEX-B77F 2024-03-10 00:00:00
FX 670 KLAX FEDEX-B77F 2024-03-09 00:00:00
FX670 KLAX FEDEX-B77F 2024-03-07 00:00:00
FX670 KLAX FEDEX-B77F 2024-03-06 00:00:00
FX198 KMEM FEDEX-B77F 2024-03-05 00:00:00
FX CTR KMIA FEDEX-B77F 2024-03-04 00:00:00
FX 1043 YMML FEDEX-MD11... 2024-03-02 00:00:00
FX 1043 YMML FEDEX-MD11 2024-03-02 00:00:00
FX198 KMEM FEDEX-B77F 2024-02-28 00:00:00
FX 584 FACT FEDEX-B77F 2024-02-29 00:00:00
FX 198 KMEM FEDEX-B77F 2024-02-25 00:00:00
FX CTR VABB FEDEX-B77F 2024-02-22 00:00:00
FX 702 KLAX FEDEX-B77F 2024-02-21 00:00:00
FX 199 KMEM FEDEX-B77F 2024-02-20 00:00:00
FX 199 KMEM FEDEX-B77F 2024-02-17 00:00:00
FX 199 KMEM FEDEX-B77F 2024-02-16 00:00:00
FX 583 PHNL FEDEX-MD11... 2024-02-13 00:00:00
FX588 FACT FEDEX-B77F 2024-02-11 00:00:00
FX 199 KMEM FEDEX-B77F 2024-02-10 00:00:00
EK 004 WSSS EMIRATES-B... 2024-02-11 00:00:00
FX 702 KLAX FEDEX-B77F 2024-01-27 00:00:00
FX 702 KLAX FEDEX-B77F 2024-01-27 00:00:00
FX 702 KLAX FEDEX-B77F 2024-01-23 00:00:00
FX 702 KLAX FEDEX-B77F 2024-01-21 00:00:00
FX 588 FACT FEDEX-B77F 2024-01-18 00:00:00
FX199 KMEM FEDEX-B77F 2024-01-15 00:00:00
FX 702 KLAX FEDEX-B77F 2024-01-14 00:00:00
FX 1080 YMML FEDEX-MD11... 2024-01-14 00:00:00
FX702 KLAX FEDEX-B77F 2024-01-13 00:00:00
FX406C LTFM FEDEX-B77F 2024-01-13 00:00:00
FX 199 KMEM FEDEX-B77F 2024-01-14 00:00:00
FX 199 KMEM B77F 2024-01-11 00:00:00
FX 579 NZAA B77F 2024-01-10 00:00:00
FX 199 KMEM B77F 2024-01-09 00:00:00
FX199 KMEM B77F 2024-01-06 00:00:00
FX 702 KLAX B77F 2024-01-04 00:00:00
FX 702 KLAX B77F 2024-01-02 00:00:00
FX 702 KLAX B77F 2024-01-02 00:00:00
FX 702 KLAX B77F 2023-12-17 00:00:00
FX 199 KMEM MD11F 2023-12-13 00:00:00
FX 199 KMEM B77F 2023-12-12 00:00:00
FX CTR LFPO B77F 2023-12-06 00:00:00
FX 588 FACT B77F 2023-11-20 00:00:00
FX702 KLAX B77F 2023-11-19 00:00:00
FX CTR KBOS B77F 2023-11-18 00:00:00
FX CTR KOAK B77F 2023-11-11 00:00:00
FX 702 KLAX B77F 2023-11-10 00:00:00
FX581 VHHH B77F 2023-11-07 00:00:00
FX581 VHHH MD11F 2023-11-06 00:00:00
FX1080 YMML MD11F 2023-11-06 00:00:00
FX CTR MMMX B77F 2023-11-07 00:00:00
FX CTR KMIA B77F 2023-11-06 00:00:00
FX 588 FACT B77F 2023-11-02 00:00:00
FX 583 PHNL B77F 2023-11-02 00:00:00
FX CTR KSEA B77F 2023-10-25 00:00:00
FX415 WSSS B77F 2023-10-21 00:00:00
FX577 YPPH MD11F 2023-10-21 00:00:00
FX 590 YPDN B77F 2023-10-14 00:00:00
FX CTR OMDB B77F 2023-10-06 00:00:00
FX415 WSSS B77F 2023-10-02 00:00:00
FX CTR KJFK B77F 2023-10-02 00:00:00
FX 588 FACT B77F 2023-10-02 00:00:00
FX 583 PHNL MD11F 2023-10-02 00:00:00
FX199 KMEM B77F 2023-10-01 00:00:00
FX 588 FACT B77F 2023-09-25 00:00:00
FX415 WSSS B77F 2023-09-23 00:00:00
FX 588 FACT MD11F 2023-09-18 00:00:00
FX581 VHHH B77F 2023-09-14 00:00:00
FX ROTW KLAX B77F 2023-09-11 00:00:00
FX 199 KMEM B77F 2023-09-10 00:00:00
FX 199 KMEM B77F 2023-09-08 00:00:00
FX CTR WSSS B77F 2023-09-07 00:00:00
FX 579 NZAA B77F 2023-09-07 00:00:00
FX575 RPLL B77F 2023-09-06 00:00:00
FX ROTW KSFO B77F 2023-09-06 00:00:00
FX 199 KMEM B77F 2023-09-07 00:00:00
FX CTR EGLL B77F 2023-09-03 00:00:00
FX CTR RKSI MD11F 2023-09-01 00:00:00
FX ROTW KLAX B77F 2023-08-27 00:00:00
FX CTR KLAX B77F 2023-08-27 00:00:00
FX 702 KLAX B77F 2023-08-27 00:00:00
FX 588 FACT B77F 2023-08-28 00:00:00
FX 702 KLAX B77F 2023-08-24 00:00:00
FX 333 RJBB B77F 2023-08-21 00:00:00
FX 702 KLAX B77F 2023-08-21 00:00:00
FX579 NZAA B77F 2023-08-16 00:00:00
FX CTR EGLL B77F 2023-08-17 00:00:00
FX WORLD 42 YPDN B752 2023-08-10 00:00:00
FX WORLD 42 YPDN B752 2023-08-08 00:00:00
FX ROTW YMML MD11F 2023-08-08 00:00:00
FX CTR YSCB B77F 2023-08-07 00:00:00
FX ATC YSSY IFATC 2023-08-07 00:00:00
FX CTR EGLL B77F 2023-08-07 00:00:00
FX WORLD 42 YPDN B752 2023-08-02 00:00:00
FXWORLD42 YPDN B752 2023-07-30 00:00:00
FX 702 KLAX B77F 2023-07-20 00:00:00
FX EVENT KLAX B77F 2023-07-16 00:00:00
FX EVENT KLAX B77F 2023-07-16 00:00:00
FX EVENT KLAX B77F 2023-07-16 00:00:00

Runway Information (Airport elevation: 14ft)

Runway 07 Length 8,301ft Width 148ft Elevation 14ft Surface Asphalt Heading 74
Runway 16L Length 7,999ft Width 148ft Elevation 14ft Surface Asphalt Heading 168
Runway 16R Length 13,001ft Width 148ft Elevation 14ft Surface Asphalt Heading 168
Runway 25 Length 8,301ft Width 148ft Elevation 14ft Surface Asphalt Heading 254
Runway 34L Length 13,001ft Width 148ft Elevation 14ft Surface Asphalt Heading 348
Runway 34R Length 7,999ft Width 148ft Elevation 14ft Surface Asphalt Heading 348

Airport Frequencies

Type APP/DEP Frequency 124.400 Mhz
Type APP/DEP Frequency 128.300 Mhz
Type APP/DEP Frequency 135.900 Mhz
Type ATIS Frequency 118.550 Mhz
Type ATIS Frequency 126.250 Mhz
Type Clearance Frequency 133.800 Mhz
Type D Frequency 118.400 Mhz
Type D Frequency 123.000 Mhz
Type D Frequency 129.700 Mhz
Type Ground Frequency 121.700 Mhz
Type Ground Frequency 126.500 Mhz
Type Tower Frequency 120.500 Mhz
Type Tower Frequency 124.700 Mhz
Type APP/DEP Frequency 124.400 Mhz
Type APP/DEP Frequency 125.300 Mhz
Type APP/DEP Frequency 126.100 Mhz
Type APP/DEP Frequency 128.300 Mhz
Type APP/DEP Frequency 135.900 Mhz
Type CTR Frequency 124.550 Mhz
Type CTR Frequency 125.800 Mhz
Type D Frequency 123.000 Mhz
Type D Frequency 129.700 Mhz
Type Tower Frequency 119.450 Mhz
Type Tower Frequency 133.950 Mhz
Type Tower Frequency 135.100 Mhz

Airport Navaids

Type NDB Ident GLF Frequency 428 Khz
Type DME Ident SY Frequency 112100 Khz